DW9435 Weather Reports


Display with metric or nautical units.
time (UTC)temp
F
wind
direction
speed
MPH
gust
MPH
rain 1hr
in
rain 24hr
in
rain mn
in
humidity
%
barometer
mb
20260905213048 83 326 6.0 14.0 0.00 0.00 0.00 17 1003.9
20260905211544 82 12 10.0 18.0 0.00 0.00 0.00 16 1004.2
20260905210042 82 303 4.0 18.0 0.00 0.00 0.00 19 1004.3
20260905204540 82 311 7.0 17.0 0.00 0.00 0.00 18 1004.5
20260905203040 81 113 6.0 23.0 0.00 0.00 0.00 20 1004.5
20260905201539 81 56 10.0 18.0 0.00 0.00 0.00 20 1004.5
20260905200035 80 15 8.0 21.0 0.00 0.00 0.00 19 1004.6
20260905194531 80 18 7.0 18.0 0.00 0.00 0.00 20 1005.0
20260905193029 79 219 5.0 14.0 0.00 0.00 0.00 21 1005.1
20260905191529 79 25 6.0 16.0 0.00 0.00 0.00 21 1005.4
20260905190032 79 16 3.0 13.0 0.00 0.00 0.00 21 1005.7
20260905184527 79 345 8.0 14.0 0.00 0.00 0.00 20 1005.6
20260905183024 78 337 7.0 18.0 0.00 0.00 0.00 21 1006.0
20260905181523 78 105 4.0 16.0 0.00 0.00 0.00 23 1006.3
20260905180021 77 327 9.0 17.0 0.00 0.00 0.00 23 1006.2
20260905174524 77 331 12.0 19.0 0.00 0.00 0.00 21 1006.2
20260905173026 77 321 9.0 18.0 0.00 0.00 0.00 21 1006.3
20260905171518 76 27 5.0 18.0 0.00 0.00 0.00 22 1006.4
20260905170018 76 293 5.0 14.0 0.00 0.00 0.00 23 1006.5
20260905164515 75 243 4.0 16.0 0.00 0.00 0.00 25 1006.4
20260905163023 75 103 4.0 12.0 0.00 0.00 0.00 26 1006.4
20260905161514 75 355 4.0 10.0 0.00 0.00 0.00 28 1006.4
20260905160015 74 314 7.0 12.0 0.00 0.00 0.00 27 1006.3
20260905154512 74 79 1.0 8.0 0.00 0.00 0.00 26 1006.5
20260905153013 74 250 2.0 11.0 0.00 0.00 0.00 25 1006.3
20260905151510 73 65 7.0 16.0 0.00 0.00 0.00 25 1006.5
20260905150009 73 47 6.0 10.0 0.00 0.00 0.00 25 1006.4
20260905144508 72 63 7.0 14.0 0.00 0.00 0.00 25 1006.3
20260905143009 72 102 2.0 10.0 0.00 0.00 0.00 27 1006.3
20260905141507 71 54 1.0 10.0 0.00 0.00 0.00 28 1006.3
20260905140006 71 106 6.0 10.0 0.00 0.00 0.00 27 1006.3
20260905134504 70 67 4.0 10.0 0.00 0.00 0.00 27 1006.0
20260905133003 71 79 8.0 13.0 0.00 0.00 0.00 25 1005.8
20260905131502 70 112 3.0 12.0 0.00 0.00 0.00 26 1005.7
20260905130110 70 118 8.0 13.0 0.00 0.00 0.00 25 1005.7
20260905124558 70 65 7.0 17.0 0.00 0.00 0.00 25 1005.4
20260905123107 70 40 6.0 10.0 0.00 0.00 0.00 24 1005.1
20260905121554 70 67 6.0 14.0 0.00 0.00 0.00 24 1005.0
20260905120053 71 1 7.0 12.0 0.00 0.00 0.00 24 1005.0
20260905114551 71 335 5.0 12.0 0.00 0.00 0.00 24 1004.9
20260905113055 71 359 7.0 14.0 0.00 0.00 0.00 25 1004.9
20260905111556 71 330 7.0 14.0 0.00 0.00 0.00 26 1004.9
20260905110046 71 49 7.0 14.0 0.00 0.00 0.00 27 1004.8
20260905104545 71 331 8.0 11.0 0.00 0.00 0.00 28 1004.8
20260905103043 71 337 8.0 15.0 0.00 0.00 0.00 29 1004.7
20260905101547 71 7 8.0 16.0 0.00 0.00 0.00 31 1004.5
20260905100040 71 40 9.0 14.0 0.00 0.00 0.00 31 1004.3
20260905094539 71 49 6.0 13.0 0.00 0.00 0.00 32 1004.2
20260905093036 71 58 7.0 13.0 0.00 0.00 0.00 33 1003.9
20260905091537 71 28 6.0 12.0 0.00 0.00 0.00 33 1003.8
20260905090035 71 41 6.0 16.0 0.00 0.00 0.00 32 1003.8
20260905084554 72 40 4.0 11.0 0.00 0.00 0.00 32 1003.6
20260905083027 72 350 6.0 14.0 0.00 0.00 0.00 33 1003.5
20260905081527 72 49 10.0 16.0 0.00 0.00 0.00 32 1003.5
20260905080023 73 37 4.0 13.0 0.00 0.00 0.00 31 1003.5
20260905074522 73 339 7.0 14.0 0.00 0.00 0.00 31 1003.4
20260905073021 73 343 6.0 14.0 0.00 0.00 0.00 32 1003.2
20260905071523 72 352 8.0 16.0 0.00 0.00 0.00 33 1003.0
20260905070016 72 37 6.0 11.0 0.00 0.00 0.00 34 1002.8
20260905064513 73 20 9.0 14.0 0.00 0.00 0.00 31 1002.4
20260905063010 74 40 4.0 18.0 0.00 0.00 0.00 30 1002.5
20260905061507 75 300 6.0 12.0 0.00 0.00 0.00 28 1002.2
20260905060004 76 25 6.0 13.0 0.00 0.00 0.00 27 1002.0
20260905054503 77 347 9.0 14.0 0.00 0.00 0.00 26 1001.8
20260905053002 77 324 6.0 12.0 0.00 0.00 0.00 26 1001.7
20260905051502 76 315 6.0 12.0 0.00 0.00 0.00 26 1001.7
20260905050101 76 25 8.0 16.0 0.00 0.00 0.00 26 1001.5
20260905044600 76 356 4.0 17.0 0.00 0.00 0.00 27 1001.6
20260905043100 76 51 7.0 13.0 0.00 0.00 0.00 28 1001.5
20260905041559 77 82 6.0 16.0 0.00 0.00 0.00 25 1001.5
20260905040057 77 43 7.0 10.0 0.00 0.00 0.00 28 1001.5
20260905034557 78 40 3.0 6.0 0.00 0.00 0.00 24 1001.5
20260905033059 78 266 2.0 6.0 0.00 0.00 0.00 23 1001.3
20260905031600 78 27 1.0 6.0 0.00 0.00 0.00 24 1001.2
20260905030101 79 20 2.0 5.0 0.00 0.00 0.00 23 1000.8
20260905024627 81 138 6.0 14.0 0.00 0.00 0.00 22 1000.4
20260905023058 81 224 9.0 17.0 0.00 0.00 0.00 21 1000.3
20260905021554 82 207 10.0 21.0 0.00 0.00 0.00 21 1000.1
20260905020053 82 257 13.0 24.0 0.00 0.00 0.00 21 999.9
20260905014556 82 205 13.0 26.0 0.00 0.00 0.00 21 999.8
20260905013053 83 235 11.0 24.0 0.00 0.00 0.00 20 999.8
20260905011557 83 243 16.0 22.0 0.00 0.00 0.00 20 999.7
20260905010049 84 253 15.0 25.0 0.00 0.00 0.00 20 999.7
20260905004558 84 225 15.0 29.0 0.00 0.00 0.00 19 999.8
20260905003048 84 226 17.0 27.0 0.00 0.00 0.00 19 999.8
20260905001547 85 239 11.0 24.0 0.00 0.00 0.00 18 999.9
20260905000047 85 228 10.0 27.0 0.00 0.00 0.00 18 999.9
20260904234550 85 297 7.0 17.0 0.00 0.00 0.00 17 999.9
20260904233058 85 311 5.0 14.0 0.00 0.00 0.00 17 999.8
20260904231543 85 252 4.0 14.0 0.00 0.00 0.00 17 1000.0
20260904230043 85 303 11.0 19.0 0.00 0.00 0.00 17 999.8
20260904224546 85 324 7.0 20.0 0.00 0.00 0.00 16 999.9
20260904223042 85 299 5.0 17.0 0.00 0.00 0.00 16 1000.2
20260904221538 84 252 7.0 24.0 0.00 0.00 0.00 16 1000.3
20260904220037 84 262 8.0 18.0 0.00 0.00 0.00 16 1000.6
20260904214542 84 270 11.0 21.0 0.00 0.00 0.00 16 1000.9